Weather History for KBUF - February, 2013

Change the Weather History Date:

Saturday, February 16, 2013

  Actual Average Record
Temperature  
Mean Temperature 24 °F 26 °F  
Max Temperature 28 °F 33 °F 64 °F (1883)
Min Temperature 20 °F 19 °F -10 °F (2015)
Degree Days  
Heating Degree Days 41 39  
Month to date heating degree days 643 635  
Since 1 July heating degree days 3881 4294  
Cooling Degree Days 0 0  
Month to date cooling degree days 0 0  
Year to date cooling degree days 0 0  
Moisture  
Dew Point 14 °F    
Average Humidity 62    
Maximum Humidity 77    
Minimum Humidity 46    
Precipitation  
Precipitation T in 0.08 in 2.08 in (1954)
Month to date precipitation 1.16 1.40  
Year to date precipitation 3.66 4.58  
Snow  
Snow T in 0.60 in 6.60 in (1993)
Month to date snowfall 17.9 10.3  
Since 1 July snowfall 46.1 71.8  
Snow Depth T in    
Sea Level Pressure  
Sea Level Pressure 30.01 in    
Wind  
Wind Speed 6 mph (WSW)    
Max Wind Speed 16 mph    
Max Gust Speed 18 mph    
Visibility 10 miles    
Events Snow    
T = Trace of Precipitation, MM = Missing Value Source: NWS Daily Summary

Daily Weather History Graph

Daily Weather History Graph

Search for Another Location

Airport or City:

Trip Planner

Search our weather history database for the weather conditions in past years. The results will help you decide how hot, cold, wet, or windy it might be!

Date:

Astronomy

Feb. 16, 2013 Rise Set
Actual Time 7:10 AM EST 5:48 PM EST
Civil Twilight 6:41 AM EST 6:17 PM EST
Nautical Twilight 6:08 AM EST 6:50 PM EST
Astronomical Twilight 5:35 AM EST 7:23 PM EST
Moon 10:11 AM EST (2/16) No Moon Set
Length of Visible Light 11h 35m
Length of Day
10h 37m
Waxing Crescent, 39% of the Moon is Illuminated
Feb 16
Waxing Crescent
Feb 17
First Quarter
Feb 25
Full
Mar 4
Last Quarter
Mar 11
New

Hourly Weather History & Observations

Time (EST) Temp. Windchill Dew Point Humidity Pressure Visibility Wind Dir Wind Speed Gust Speed Precip Events Conditions
12:54 AM 23.0 °F 17.0 °F 15.1 °F 72% 30.09 in 10.0 mi West 4.6 mph - N/A   Mostly Cloudy
1:54 AM 21.9 °F 15.7 °F 15.1 °F 75% 30.08 in 10.0 mi WNW 4.6 mph - N/A   Mostly Cloudy
2:54 AM 21.9 °F 17.2 °F 15.1 °F 75% 30.07 in 10.0 mi WNW 3.5 mph - N/A   Mostly Cloudy
3:54 AM 21.9 °F 17.2 °F 15.1 °F 75% 30.06 in 10.0 mi WSW 3.5 mph - N/A   Mostly Cloudy
4:54 AM 21.9 °F - 12.9 °F 68% 30.06 in 10.0 mi Calm Calm - N/A   Mostly Cloudy
5:54 AM 21.9 °F 14.5 °F 15.1 °F 75% 30.06 in 10.0 mi South 5.8 mph - N/A   Mostly Cloudy
6:54 AM 21.9 °F 14.5 °F 14.0 °F 72% 30.05 in 10.0 mi South 5.8 mph - N/A   Mostly Cloudy
7:54 AM 23.0 °F 18.4 °F 15.1 °F 72% 30.05 in 10.0 mi South 3.5 mph - N/A   Mostly Cloudy
8:54 AM 24.1 °F 17.0 °F 12.9 °F 62% 30.05 in 10.0 mi South 5.8 mph - N/A   Mostly Cloudy
9:54 AM 25.0 °F 18.1 °F 10.9 °F 55% 30.05 in 10.0 mi SW 5.8 mph - N/A   Mostly Cloudy
10:54 AM 27.0 °F - 10.9 °F 51% 30.03 in 10.0 mi Calm Calm - N/A   Mostly Cloudy
11:54 AM 27.0 °F 21.6 °F 10.0 °F 49% 30.01 in 10.0 mi SSW 4.6 mph - N/A   Mostly Cloudy
12:54 PM 28.0 °F 19.3 °F 10.9 °F 49% 29.99 in 10.0 mi West 9.2 mph - N/A   Mostly Cloudy
1:54 PM 28.0 °F 18.6 °F 14.0 °F 56% 29.97 in 10.0 mi SSW 10.4 mph - N/A   Mostly Cloudy
2:54 PM 28.0 °F 18.1 °F 17.1 °F 63% 29.96 in 10.0 mi West 11.5 mph - N/A   Mostly Cloudy
3:54 PM 27.0 °F 18.7 °F 18.0 °F 69% 29.96 in 10.0 mi West 8.1 mph - N/A   Mostly Cloudy
4:54 PM 26.1 °F 16.8 °F 16.0 °F 66% 29.97 in 10.0 mi WSW 9.2 mph - N/A   Overcast
5:54 PM 26.1 °F 14.0 °F 14.0 °F 60% 29.99 in 7.0 mi WSW 15.0 mph - 0.00 in Snow Light Snow
6:54 PM 24.1 °F 13.7 °F 15.1 °F 69% 30.00 in 10.0 mi West 10.4 mph - 0.00 in   Mostly Cloudy
7:54 PM 24.1 °F 14.4 °F 7.0 °F 48% 29.99 in 10.0 mi West 9.2 mph - N/A   Scattered Clouds
8:54 PM 21.9 °F 12.5 °F 9.0 °F 58% 29.98 in 10.0 mi West 8.1 mph - N/A   Scattered Clouds
9:54 PM 21.0 °F - 10.9 °F 65% 29.97 in 10.0 mi Calm Calm - N/A   Scattered Clouds
10:54 PM 21.0 °F 13.4 °F 14.0 °F 74% 29.95 in 5.0 mi WNW 5.8 mph - 0.00 in Snow Light Snow
11:33 PM 21.2 °F 14.9 °F 14.0 °F 74% 29.89 in 9.0 mi South 4.6 mph - 0.00 in Snow Light Snow
11:54 PM 21.0 °F - 15.1 °F 78% 29.92 in 8.0 mi Calm Calm - 0.00 in Snow Light Snow